Wind_Speed
35 35 33 33 32 31 31 30 29 28 29 29 30 30 30 29 29 28 28 28 29 29 30 31 32 32 32 32 32 31 31 31 31 31 31 31 31 31
34 33 33 33 33 32 31 31 30 30 30 31 30 30 30 30 30 30 30 30 30 30 30 31 32 32 31 31 31 31 30 30 30 30 30 30 30 30
34 34 34 33 33 33 32 32 31 30 30 31 31 31 31 30 30 31 31 31 30 30 30 30 30 29 28 28 28 28 28 28 28 28 28 28 29 31
34 34 34 34 34 33 32 32 31 30 30 31 31 32 31 31 30 29 29 27 28 29 29 28 26 26 26 26 26 26 27 27 27 26 26 27 28 29
32 32 32 33 34 33 32 32 32 31 31 31 30 30 30 29 28 28 28 27 27 26 25 24 24 24 24 24 24 24 23 23 23 24 25 26 27 28
29 30 30 31 32 32 31 31 31 31 30 30 28 28 28 27 26 25 25 23 22 21 20 20 20 21 21 21 20 20 20 21 22 23 24 25 25 26
26 27 27 28 29 30 29 28 29 28 28 27 26 26 25 24 24 23 21 19 17 17 16 16 16 16 16 16 17 17 18 20 21 21 22 23 23 24
23 25 26 26 26 26 26 27 26 26 26 25 24 22 22 22 20 19 18 16 15 14 13 12 12 13 13 14 15 16 17 18 18 19 20 20 21 22
21 22 24 24 24 24 24 24 23 23 22 21 20 19 19 18 17 16 15 13 12 12 11 11 11 11 12 13 14 15 15 16 16 17 17 17 18 19
17 18 20 21 22 21 20 21 21 20 20 19 18 17 16 15 14 13 12 11 10 9 9 10 11 11 11 12 12 12 13 14 14 14 14 15 16 17
14 16 17 18 20 20 19 19 19 19 18 18 16 15 13 12 12 11 11 10 9 8 8 9 9 9 9 9 10 10 11 11 11 12 13 14 15 15
11 13 14 16 16 16 17 17 18 18 16 15 15 13 12 11 10 10 9 9 8 8 7 7 7 7 7 7 7 8 8 9 10 11 12 13 14 14
9 12 13 14 14 14 14 14 15 16 15 14 13 12 12 11 10 9 8 8 7 7 6 5 5 5 5 6 6 7 7 8 9 10 11 12 13 13
9 10 11 12 13 14 14 14 14 14 14 14 13 11 11 10 9 8 8 7 6 5 5 4 4 4 4 5 5 6 7 8 9 9 11 11 12 12
8 9 10 11 11 13 13 14 15 14 13 13 12 10 10 9 8 8 7 6 5 4 4 3 3 3 3 4 4 5 6 7 8 9 9 10 11 12
9 10 11 12 12 13 14 14 14 13 12 12 11 10 10 9 8 7 7 6 5 4 4 3 2 2 3 3 4 5 6 7 7 8 9 10 11 12
12 12 12 13 13 13 13 13 12 12 12 11 11 10 9 8 8 8 7 7 6 4 3 3 3 3 3 3 4 5 6 6 7 8 9 10 11 12
14 13 13 13 13 12 12 12 11 11 11 11 10 9 9 9 9 8 7 6 5 4 3 3 3 2 2 3 4 5 5 6 7 8 9 11 12 13
15 15 14 14 13 12 12 11 11 12 11 11 10 10 10 10 9 8 7 5 5 4 3 3 2 2 2 3 4 5 5 6 8 9 10 11 12 13
16 15 15 14 13 13 13 12 12 12 12 11 11 10 10 9 8 7 5 5 4 3 3 2 2 2 3 4 5 5 6 7 8 10 11 11 12 14
16 15 15 14 14 14 14 13 13 12 12 11 11 10 9 8 7 6 5 4 3 3 2 2 3 3 4 5 6 6 7 8 9 10 11 12 13 14
15 15 15 15 14 14 14 13 13 12 11 11 10 10 8 7 6 5 4 3 2 2 2 3 4 5 5 6 6 7 7 8 9 10 11 12 13 14
14 14 14 14 13 13 12 11 11 11 10 10 9 8 6 5 4 4 3 2 2 2 3 4 5 6 6 6 7 7 8 9 10 10 11 12 13 15
Wind_Direction
239 240 240 241 241 242 244 246 249 252 251 252 254 256 258 260 261 262 263 265 266 268 269 270 272 274 276 278 279 280 282 284 286 287 288 289 290 291
239 240 240 241 244 245 246 247 250 253 254 255 255 256 258 260 263 263 264 266 268 269 270 270 271 272 274 276 278 279 281 283 284 287 289 290 291 292
239 240 240 240 242 244 246 247 248 251 255 256 255 257 259 260 263 265 266 266 266 268 269 269 270 273 274 276 278 280 282 283 285 287 289 291 293 294
239 239 240 242 242 244 246 248 250 252 255 257 258 258 259 261 264 266 265 266 266 265 265 265 267 270 272 274 278 280 282 285 287 289 291 293 295 295
240 241 242 242 243 245 247 249 252 254 255 257 258 257 259 261 262 262 263 263 264 262 262 263 266 269 271 274 279 282 285 287 289 292 294 295 297 298
240 242 242 243 245 247 249 250 251 253 255 257 259 258 257 257 257 259 261 261 259 258 258 261 266 270 272 276 280 284 287 291 293 295 297 298 301 302
242 243 243 244 246 247 248 249 249 251 253 253 255 254 254 254 255 256 253 252 251 252 256 262 268 272 274 278 282 286 290 294 296 298 300 302 304 306
244 243 243 243 243 244 245 247 248 250 249 249 251 251 249 250 249 246 242 243 246 249 255 263 269 273 278 283 287 290 293 296 299 302 304 306 308 311
244 243 240 239 239 240 242 241 242 243 240 240 240 241 240 239 237 236 236 238 243 250 256 263 270 277 283 288 292 295 296 299 303 306 309 314 317 319
241 238 237 235 236 238 238 236 233 233 231 229 229 230 228 227 223 223 226 231 242 253 260 266 274 280 286 291 294 297 300 305 310 315 319 322 324 326
241 234 231 229 230 230 228 225 224 221 220 217 214 213 215 214 214 220 226 231 237 245 253 264 274 281 287 291 296 302 308 313 318 321 323 325 327 329
230 225 223 222 220 217 218 218 215 208 207 201 200 201 204 206 211 219 224 227 234 243 252 261 270 277 285 295 303 310 315 319 322 325 329 331 332 333
211 210 210 207 203 200 199 201 201 196 193 193 192 195 198 202 207 214 222 228 236 245 251 253 258 271 288 301 308 313 317 321 325 329 334 336 337 338
197 195 192 193 192 189 185 184 182 183 183 184 186 191 195 199 204 211 216 221 229 235 235 234 247 269 287 301 310 316 320 325 327 329 333 338 342 344
173 177 174 174 171 172 173 172 171 174 178 181 184 188 189 192 199 206 211 217 219 218 220 228 247 269 290 305 315 322 326 329 331 333 335 339 342 346
135 146 150 154 157 160 158 159 163 165 170 175 179 181 183 186 194 199 202 205 203 204 211 224 244 270 282 294 313 327 332 336 338 340 343 346 348 350
112 125 133 140 146 150 151 154 158 163 165 169 173 176 181 186 187 188 190 192 197 206 219 232 250 269 276 288 310 323 330 335 340 344 346 348 349 349
101 112 123 130 134 139 146 152 156 157 159 163 167 169 172 175 177 180 183 188 194 205 222 238 246 257 274 294 312 324 331 336 340 341 342 345 347 347
95 102 110 117 123 129 136 140 142 145 149 151 154 157 162 166 169 172 176 185 197 214 224 228 233 253 283 305 317 323 329 333 336 338 341 342 343 344
91 96 102 110 115 120 125 131 134 136 139 143 147 150 154 159 163 169 176 184 192 199 207 218 240 274 297 308 314 317 323 329 334 337 339 341 342 343
87 91 97 104 109 114 118 122 126 129 133 137 141 145 149 152 158 164 169 175 183 199 220 246 272 286 297 304 310 316 322 327 331 335 338 340 341 342
86 90 94 99 105 110 114 117 121 126 131 134 138 141 145 148 153 158 166 179 196 226 258 278 288 295 301 306 311 316 321 324 328 332 334 337 339 339
86 91 95 99 103 107 113 117 122 126 131 135 139 143 146 148 150 157 171 196 235 268 286 296 300 302 304 306 310 314 318 323 326 329 331 332 334 335
Height
5821 5825 5828 5832 5835 5839 5842 5845 5848 5849 5852 5854 5856 5858 5859 5861 5863 5864 5865 5866 5866 5867 5867 5868 5868 5868 5868 5868 5867 5867 5866 5865 5864 5863 5861 5859 5858 5856
5812 5816 5820 5823 5827 5830 5833 5836 5839 5842 5844 5846 5848 5850 5852 5854 5855 5857 5858 5859 5859 5860 5860 5861 5861 5861 5861 5861 5860 5860 5859 5858 5857 5856 5854 5853 5851 5849
5804 5808 5811 5815 5818 5822 5825 5828 5830 5833 5836 5838 5840 5842 5844 5846 5847 5849 5850 5851 5851 5852 5853 5853 5854 5854 5854 5854 5854 5853 5853 5852 5851 5849 5848 5846 5844 5842
5796 5799 5803 5806 5810 5813 5816 5819 5822 5825 5827 5830 5832 5834 5836 5838 5839 5841 5842 5843 5844 5844 5845 5846 5847 5847 5848 5848 5847 5847 5846 5845 5844 5843 5841 5839 5837 5835
5787 5791 5794 5797 5801 5804 5807 5810 5813 5816 5819 5822 5824 5826 5828 5830 5832 5833 5835 5836 5836 5837 5838 5839 5840 5841 5841 5841 5841 5841 5840 5840 5838 5837 5835 5833 5830 5828
5779 5782 5785 5789 5792 5795 5799 5802 5805 5808 5811 5814 5816 5818 5820 5822 5824 5826 5828 5829 5830 5831 5832 5834 5835 5835 5836 5836 5836 5836 5835 5834 5832 5831 5829 5826 5824 5821
5771 5774 5778 5781 5784 5788 5791 5794 5798 5801 5803 5806 5809 5811 5813 5816 5818 5820 5822 5823 5824 5826 5827 5829 5830 5830 5831 5831 5831 5830 5830 5828 5827 5825 5823 5820 5818 5815
5765 5768 5771 5774 5777 5780 5784 5787 5791 5794 5796 5799 5802 5805 5807 5809 5812 5814 5816 5818 5820 5822 5823 5824 5825 5826 5826 5826 5826 5825 5824 5823 5821 5820 5818 5815 5812 5809
5759 5761 5764 5768 5771 5774 5777 5781 5784 5787 5791 5794 5797 5799 5802 5804 5807 5809 5812 5814 5816 5818 5819 5820 5821 5822 5822 5822 5821 5821 5820 5818 5817 5815 5813 5810 5808 5805
5753 5756 5759 5762 5765 5769 5772 5776 5779 5782 5786 5789 5792 5794 5797 5800 5803 5806 5808 5811 5813 5814 5816 5817 5817 5818 5818 5818 5817 5817 5816 5815 5813 5811 5809 5807 5804 5801
5747 5750 5753 5756 5760 5764 5768 5771 5774 5778 5781 5784 5787 5791 5794 5797 5800 5803 5806 5808 5810 5811 5813 5814 5814 5814 5815 5815 5814 5814 5812 5811 5810 5808 5806 5804 5801 5798
5743 5746 5749 5752 5756 5760 5764 5767 5771 5774 5778 5781 5785 5788 5792 5795 5798 5801 5803 5805 5807 5808 5810 5811 5811 5812 5812 5812 5811 5811 5810 5809 5807 5805 5803 5801 5798 5795
5741 5743 5746 5750 5754 5757 5761 5765 5768 5772 5776 5780 5783 5787 5790 5793 5796 5798 5801 5803 5805 5806 5807 5808 5809 5809 5810 5810 5809 5808 5808 5806 5805 5803 5801 5799 5796 5793
5739 5742 5745 5748 5752 5755 5759 5763 5767 5771 5774 5778 5782 5785 5788 5791 5794 5796 5799 5801 5802 5804 5805 5806 5807 5808 5808 5808 5807 5806 5805 5804 5803 5801 5799 5797 5795 5792
5739 5741 5744 5748 5751 5755 5758 5762 5766 5770 5774 5777 5781 5784 5787 5790 5793 5795 5797 5799 5801 5802 5803 5804 5805 5806 5806 5806 5805 5805 5803 5802 5801 5799 5797 5795 5793 5791
5740 5743 5746 5749 5752 5756 5759 5763 5767 5770 5774 5777 5781 5784 5787 5789 5792 5794 5796 5798 5799 5801 5802 5803 5804 5804 5804 5804 5804 5803 5802 5801 5799 5798 5796 5794 5792 5789
5744 5746 5748 5751 5755 5758 5761 5764 5768 5771 5774 5778 5781 5783 5786 5789 5791 5793 5795 5797 5799 5800 5801 5802 5802 5802 5802 5803 5802 5802 5801 5799 5798 5797 5795 5793 5790 5788
5749 5750 5752 5755 5757 5760 5763 5766 5769 5772 5775 5778 5781 5784 5786 5788 5791 5793 5795 5796 5798 5799 5800 5800 5801 5801 5802 5801 5801 5800 5799 5798 5797 5795 5794 5792 5789 5787
5755 5756 5757 5759 5761 5763 5765 5768 5771 5774 5776 5779 5782 5784 5787 5789 5791 5793 5795 5796 5797 5798 5799 5799 5800 5800 5800 5800 5800 5799 5798 5797 5796 5794 5792 5790 5788 5785
5761 5761 5762 5764 5765 5767 5769 5771 5773 5776 5778 5781 5783 5786 5788 5790 5792 5793 5795 5796 5797 5798 5798 5799 5799 5799 5799 5799 5799 5798 5797 5795 5794 5792 5790 5788 5786 5783
5766 5767 5767 5768 5770 5771 5773 5775 5777 5779 5781 5783 5785 5787 5789 5791 5792 5794 5795 5796 5797 5797 5798 5798 5798 5798 5798 5798 5797 5796 5795 5793 5792 5790 5788 5786 5783 5781
5772 5772 5773 5773 5774 5776 5777 5778 5780 5782 5784 5785 5787 5789 5791 5792 5793 5794 5795 5796 5797 5797 5797 5797 5797 5797 5796 5796 5795 5794 5792 5791 5789 5787 5785 5783 5781 5778
5777 5777 5778 5778 5779 5780 5781 5782 5783 5785 5786 5788 5789 5790 5792 5793 5794 5794 5795 5796 5796 5796 5796 5796 5795 5795 5794 5793 5793 5791 5790 5788 5787 5785 5783 5781 5778 5775